Flag for U.S.A. Weather past 2 weeks in Lakeland, Florida, U.S.A.

Now
86 °F

Scattered clouds.


Feels Like: 91 °F
Forecast: 73 / 89 °F
Wind: No wind

Location: Lakeland Regional

Current Time: Sep 5, 2015 at 12:48:02 PM

Latest Report: Sep 5, 2015 at 11:50 AM


Visibility: 10 mi

Pressure: 30.04 "Hg

Humidity: 59%

Dew point: 70 °F

Location of LakelandLocation

Historic Weather in Lakeland — Graph

°F

Lakeland temperature yesterday

Maximum temperature yesterday: 90 °F (at 2:50 PM)
Minimum temperature yesterday: 75 °F (at 5:35 AM)
Average temperature yesterday: 79 °F

Past Weeks' High & Low Weather Summary

 TemperatureHumidityPressure
High95 °F (Aug 22, 4:50 PM)100% (Aug 22, 5:15 AM)32.00 "Hg (Aug 22, 5:15 AM)
Low72 °F (Aug 28, 4:15 AM)49% (Aug 24, 11:50 AM)29.87 "Hg (Aug 25, 5:50 PM)
Average79 °F85%30.00 "Hg
* Reported Aug 21 11:45 AM — Sep 5 11:50 AM, Lakeland, Weather by CustomWeather, © 2015

Note: Actual official high and low records may vary slightly from our data, if they occured in-between our weather recording intervals... More about our weather records

Advertising

Lakeland weather history for previous 24 hours

 ConditionsComfort  
Time TempWeatherWind HumidityBarometerVisibility
11:50 AM
Sat, Sep 5
86 °FScattered clouds.No wind59%30.04 "Hg10 mi
10:50 AM84 °FSunny.No wind70%30.05 "Hg10 mi
9:55 AM82 °FSunny.No wind74%30.03 "Hg10 mi
8:54 AM79 °FSunny.No wind84%30.02 "Hg10 mi
7:50 AM73 °FClear.No wind100%30.01 "Hg10 mi
6:50 AM73 °FClear.No wind100%30.00 "Hg10 mi
5:50 AM73 °FClear.No wind100%30.00 "Hg10 mi
5:35 AM72 °FClear.No wind100%29.98 "Hg7 mi
5:15 AM72 °FClear.No wind100%29.98 "Hg10 mi
4:55 AM73 °FClear.No wind94%29.98 "Hg10 mi
4:35 AM73 °FClear.No wind94%29.98 "Hg7 mi
4:15 AM73 °FClear.No wind94%29.98 "Hg10 mi
3:55 AM73 °FClear.No wind94%29.97 "Hg10 mi
3:35 AM73 °FClear.No wind94%29.97 "Hg10 mi
3:15 AM73 °FClear.No wind94%29.97 "Hg10 mi
2:55 AM73 °FClear.No wind94%29.97 "Hg10 mi
2:35 AM73 °FClear.3 mph94%29.97 "Hg10 mi
2:15 AM75 °FClear.No wind89%29.97 "Hg10 mi
1:55 AM75 °FClear.No wind89%29.98 "Hg10 mi
1:35 AM75 °FClear.3 mph89%29.98 "Hg10 mi
1:15 AM75 °FClear.No wind94%29.98 "Hg10 mi
12:55 AM75 °FClear.No wind94%29.99 "Hg10 mi
12:35 AM75 °FClear.No wind94%30.00 "Hg10 mi
12:15 AM75 °FClear.No wind94%30.00 "Hg10 mi
11:55 PM
Fri, Sep 4
75 °FClear.No wind94%30.00 "Hg10 mi
11:35 PM75 °FClear.No wind94%30.00 "Hg10 mi
11:15 PM75 °FClear.No wind89%30.01 "Hg10 mi
10:55 PM75 °FClear.No wind89%30.01 "Hg10 mi
10:35 PM75 °FClear.No wind89%30.00 "Hg10 mi
10:15 PM75 °FClear.No wind89%30.00 "Hg10 mi
9:50 PM75 °FClear.No wind94%29.99 "Hg10 mi
8:50 PM75 °FPassing clouds.5 mph94%29.98 "Hg10 mi
7:56 PM75 °FScattered showers. Partly sunny.5 mph94%29.97 "Hg10 mi
6:50 PM79 °FScattered showers. Broken clouds.7 mph79%29.99 "Hg10 mi
5:50 PM84 °FPartly sunny.5 mph70%29.98 "Hg10 mi
4:50 PM84 °FScattered clouds.9 mph70%29.96 "Hg10 mi
3:50 PM88 °FScattered clouds.6 mph62%29.94 "Hg10 mi
2:50 PM90 °FScattered clouds.6 mph59%29.96 "Hg10 mi
1:50 PM88 °FScattered clouds.7 mph66%29.98 "Hg10 mi
12:47 PM88 °FScattered clouds.8 mph66%30.00 "Hg10 mi
Weather by CustomWeather, © 2015

See weather overviewHow to use our weather pages